Powrót do katalogu

JUPITER 3

ECHOSTAR 24

AktywnyŁącznośćGEO
NORAD 57479·PAYLOAD·🇺🇸 United States

Wystrzelony Jul 29, 2023 z Cape Canaveral Space Force Station

Loading…

TLE

ŚwieżeSource: Space-Track

Epoka: Sep 14, 2026, 06:47 UTC

1 57479U 23108A   26257.28309211 -.00000159  00000-0  00000-0 0  9990
2 57479   0.0130 132.1141 0001138  42.1017 185.7902  1.00271415 11543

Śledź JUPITER 3 w czasie rzeczywistym z AllMySat

Download on the App Store